星链-35016 (STARLINK-35016)

导读

STARLINK-35016是美国SpaceX公司星链(Starlink)星座中的一颗低轨通信卫星,于2025年8月27日发射升空。卫星采用平板设计,搭载Ku/Ka波段通信载荷,以氪为工质的霍尔推进器实现轨道调整与末期离轨,具备自主避撞能力,运行在近地轨道,旨在为全球提供低延迟宽带互联网服务,是星链星座规模化组网的重要组成部分。

基本信息
目录编号:
65341
目录名称:
STARLINK-35016
国际标识:
2025-189U
轨道中心:
EARTH
卫星名称:
星链-35016
卫星全名:
星链-35016 (STARLINK-35016)
卫星状态:
在轨 (已飞行373 天)
发射日期:
2025-08-27 UTC
国别 :
美国 (US)
星等 :
--
轨道信息
数据来源 国际轨道数据
星历时间: 2026-09-03T22:26:43+0800
16小时前
查看轨道信息
半长轴: 6840.861km
偏心率: 0.0001005
轨道倾角: 53.158°
近地点辐角 79.318°
升交点赤经 98.388°
平近点角 280.793°
近地点: 462.036km
远地点: 463.412km
周期: 93.848分钟
每日圈数: 15.343931
详细信息
固有亮度:
5
最大亮度:
2.5
卫星平台:
Starlink V1.0
覆盖范围:
全球
运营商:
太空探索技术公司
运营商所在国:
美国
制造商(研发单位):
太空探索技术公司
制造商所在国:
美国
使用方式:
暂无
卫星简介
Starlink 计划是 SpaceX 推出的全球卫星互联网项目,通过发射低轨道卫星,为全球尤其是偏远地区提供高速、低延迟的互联网服务。自 2019 年起,Starlink 已部署数千颗卫星,旨在缩小全球数字鸿沟,推动互联网普及。该项目还为军事、航空等行业提供通信支持,带来广泛经济效益。
2D轨道图
3D轨道图
轨道高度分析图
轨道倾角分析图
轨道综合分析图
查看轨道综合分析图